Stations météo

réclame
Mon MeteoGroup
Lecce, Italie (16332): Température de l'air & dewpoint: 12.12.2017 13:00:00 - 18.12.2017 13:00:00 (CET)Lecce, Italie (16332): Vitesse du vent: 12.12.2017 13:00:00 - 18.12.2017 13:00:00 (CET)Lecce, Italie (16332): Direction du vent: 12.12.2017 13:00:00 - 18.12.2017 13:00:00 (CET)Lecce, Italie (16332): reduced air pressure: 12.12.2017 13:00:00 - 18.12.2017 13:00:00 (CET)Lecce, Italie (16332): visibility: 12.12.2017 13:00:00 - 18.12.2017 13:00:00 (CET)
Date & Time tt [°C] td [°C] ff [km/h] ff [knt] dd ppp [hPa] vv [km]
18.12.2017 13:00:00 9,8 3,1 28 15 NW 1017,6 10
18.12.2017 12:00:00 9,0 4,0 28 15 NW - 10
18.12.2017 11:00:00 9,0 4,0 21 11 WNW - 10
18.12.2017 10:00:00 8,2 4,2 21 11 NW 1018,5 10
18.12.2017 09:00:00 6,0 4,0 13 7 WNW - 10
18.12.2017 08:00:00 4,0 2,0 11 6 WNW - 10
18.12.2017 07:00:00 4,4 2,8 13 7 WNW 1017,6 10
18.12.2017 06:00:00 5,0 3,0 9 5 WNW - 10
18.12.2017 05:00:00 4,0 2,0 11 6 WNW - 10
18.12.2017 04:00:00 4,8 3,0 9 5 WNW 1017,0 10
18.12.2017 03:00:00 5,0 3,0 11 6 WNW - 10
18.12.2017 02:00:00 5,0 3,0 15 8 W - 10
18.12.2017 01:00:00 4,8 3,3 18 10 W 1016,6 10
18.12.2017 00:00:00 5,0 3,0 15 8 W - 10
17.12.2017 23:00:00 6,0 4,0 15 8 W - 10
17.12.2017 22:00:00 4,4 2,9 11 6 SW 1015,6 10
17.12.2017 21:00:00 5,0 3,0 4 2 WSW - 10
17.12.2017 20:00:00 6,0 3,0 13 7 W - 10
17.12.2017 19:00:00 6,8 3,2 11 6 W 1014,4 10
17.12.2017 18:00:00 8,0 3,0 8 4 S - 10
17.12.2017 17:00:00 8,0 4,0 9 5 W - 10
17.12.2017 16:00:00 10,0 4,6 9 5 W 1012,5 10
17.12.2017 15:00:00 11,0 7,0 4 2 - - 10
17.12.2017 14:00:00 11,0 5,0 9 5 N - 10
17.12.2017 13:00:00 11,4 5,1 15 8 N 1011,4 10
17.12.2017 12:00:00 13,0 8,0 13 7 WSW - 10
17.12.2017 11:00:00 12,0 8,0 11 6 WSW - 10
17.12.2017 10:00:00 11,2 8,4 5 3 W 1011,4 10
17.12.2017 09:00:00 10,0 9,0 5 3 SSW - 10
17.12.2017 08:00:00 8,0 7,0 4 2 - - 10
17.12.2017 07:00:00 8,0 7,1 2 1 N 1010,2 10
17.12.2017 06:00:00 8,0 7,0 9 5 W - 10
17.12.2017 05:00:00 9,0 8,0 15 8 NW - 10
17.12.2017 04:00:00 9,0 8,1 11 6 WSW 1009,4 10
17.12.2017 03:00:00 10,0 9,0 16 9 SW - 10
17.12.2017 02:00:00 10,0 9,0 9 5 SSE - 10
17.12.2017 01:00:00 10,2 9,3 5 3 N 1009,2 10
17.12.2017 00:00:00 10,0 9,0 4 2 - - 10
16.12.2017 23:00:00 11,0 10,0 4 2 - - 10
16.12.2017 22:00:00 11,0 9,9 4 2 N 1008,6 10
16.12.2017 21:00:00 11,0 10,0 4 2 - - 10
16.12.2017 20:00:00 11,0 10,0 2 1 - - 10
16.12.2017 19:00:00 12,0 10,9 5 3 NNE 1008,0 10
16.12.2017 18:00:00 12,0 11,0 8 4 NE - 10
16.12.2017 17:00:00 12,0 11,0 5 3 N - 10
16.12.2017 16:00:00 12,2 11,1 5 3 W 1006,7 10
16.12.2017 15:00:00 13,0 12,0 2 1 - - 10
16.12.2017 14:00:00 13,0 12,0 8 4 S - 10
16.12.2017 13:00:00 13,4 12,1 9 5 SSW 1006,9 10
16.12.2017 12:00:00 14,0 13,0 11 6 S - 10
16.12.2017 11:00:00 16,0 14,0 8 4 SSW - 10
16.12.2017 10:00:00 15,4 13,8 8 4 S 1007,0 10
16.12.2017 09:00:00 15,0 13,0 13 7 SSW - 10
16.12.2017 08:00:00 14,0 13,0 21 11 S - 10
16.12.2017 07:00:00 14,0 11,4 18 10 S 1006,0 10
16.12.2017 06:00:00 15,0 12,0 26 14 S - 10
16.12.2017 05:00:00 14,0 12,0 24 13 S - 10
16.12.2017 04:00:00 13,8 12,4 18 10 S 1005,1 10
16.12.2017 03:00:00 14,0 13,0 26 14 SSE - 10
16.12.2017 02:00:00 14,0 13,0 29 16 S - 10
16.12.2017 01:00:00 14,0 12,9 29 16 S 1005,6 10
16.12.2017 00:00:00 15,0 14,0 26 14 S - 10
15.12.2017 23:00:00 14,0 13,0 26 14 S - 10
15.12.2017 22:00:00 14,4 13,1 28 15 S 1007,5 10
15.12.2017 21:00:00 14,0 13,0 26 14 S - 10
15.12.2017 20:00:00 14,0 13,0 26 14 S - 10
15.12.2017 19:00:00 13,8 12,5 24 13 S 1008,0 10
15.12.2017 18:00:00 14,0 12,0 31 17 S - 10
15.12.2017 17:00:00 14,0 12,0 28 15 S - 10
15.12.2017 16:00:00 15,0 11,2 31 17 S 1009,3 10
15.12.2017 15:00:00 15,0 10,0 31 17 S - 10
15.12.2017 14:00:00 16,0 11,0 29 16 SSW - 10
15.12.2017 13:00:00 15,6 11,4 34 18 SSW 1011,1 10
15.12.2017 12:00:00 15,0 11,0 34 18 SSE - 10
15.12.2017 11:00:00 15,0 13,0 24 13 S - 10
15.12.2017 10:00:00 14,0 12,5 22 12 S 1012,7 10
15.12.2017 09:00:00 14,0 13,0 22 12 SSE - 10
15.12.2017 08:00:00 13,0 12,0 18 10 S - 10
15.12.2017 07:00:00 12,0 11,2 16 9 SSE 1012,9 10
15.12.2017 06:00:00 12,0 11,0 15 8 S - 10
15.12.2017 05:00:00 11,0 10,0 11 6 SSE - 10
15.12.2017 04:00:00 10,0 8,9 11 6 SSE 1013,9 10
15.12.2017 03:00:00 10,0 9,0 13 7 SE - 10
15.12.2017 02:00:00 10,0 9,0 15 8 SSE - 10
15.12.2017 01:00:00 10,4 8,8 11 6 SSE 1015,0 10
15.12.2017 00:00:00 11,0 9,0 11 6 SSE - 10
14.12.2017 23:00:00 11,0 9,0 11 6 SE - 10
14.12.2017 22:00:00 11,2 9,5 13 7 SSE 1015,8 10
14.12.2017 21:00:00 11,0 9,0 11 6 SSE - 10
14.12.2017 20:00:00 10,0 8,0 8 4 SSE - 10
14.12.2017 19:00:00 10,4 8,3 5 3 SE 1016,7 10
14.12.2017 18:00:00 11,0 9,0 13 7 S - 10
14.12.2017 17:00:00 12,0 8,0 13 7 SW - 10
14.12.2017 16:00:00 13,4 7,6 16 9 SSW 1016,5 10
14.12.2017 15:00:00 14,0 7,0 22 12 WSW - 10
14.12.2017 14:00:00 15,0 8,0 24 13 WSW - 10
14.12.2017 13:00:00 15,0 8,0 16 9 W 1017,1 10
14.12.2017 12:00:00 14,0 7,0 11 6 SW - 10
14.12.2017 11:00:00 14,0 8,0 13 7 W - 10
14.12.2017 10:00:00 13,6 8,9 11 6 W 1018,4 10
14.12.2017 09:00:00 10,0 9,0 8 4 S - 10
14.12.2017 08:00:00 7,0 6,0 9 5 SSE - 10
14.12.2017 07:00:00 5,0 3,7 5 3 SW 1018,4 10
14.12.2017 06:00:00 6,0 5,0 2 1 - - 10
14.12.2017 05:00:00 9,0 8,0 9 5 W - 10
14.12.2017 04:00:00 6,8 6,1 4 2 N 1018,3 10
14.12.2017 03:00:00 8,0 7,0 5 3 WNW - 10
14.12.2017 02:00:00 9,0 8,0 9 5 SSW - 10
14.12.2017 01:00:00 10,4 9,6 11 6 W 1018,0 10
14.12.2017 00:00:00 10,0 10,0 4 2 SE - 10
13.12.2017 23:00:00 11,0 11,0 5 3 S - 10
13.12.2017 22:00:00 11,8 11,0 8 4 NW 1018,2 10
13.12.2017 21:00:00 13,0 13,0 8 4 W - 10
13.12.2017 20:00:00 14,0 13,0 5 3 WSW - 10
13.12.2017 19:00:00 13,6 12,7 2 1 N 1018,1 10
13.12.2017 18:00:00 14,0 13,0 5 3 - - 10
13.12.2017 17:00:00 15,0 13,0 9 5 S - 10
13.12.2017 16:00:00 15,2 13,4 13 7 SSW 1018,1 10
13.12.2017 15:00:00 17,0 14,0 9 5 SSW - 10
13.12.2017 14:00:00 18,0 15,0 15 8 S - 10
13.12.2017 13:00:00 18,0 15,6 15 8 SSE 1018,8 10
13.12.2017 12:00:00 17,0 16,0 18 10 SSE - 10
13.12.2017 11:00:00 16,0 15,0 16 9 S - 10
13.12.2017 10:00:00 15,2 14,4 18 10 S 1020,6 10
13.12.2017 09:00:00 15,0 14,0 15 8 S - 10
13.12.2017 08:00:00 14,0 13,0 13 7 SSE - 10
13.12.2017 07:00:00 14,0 13,1 15 8 SSE 1020,3 10
13.12.2017 06:00:00 14,0 13,0 16 9 S - 10
13.12.2017 05:00:00 14,0 13,0 21 11 S - 10
13.12.2017 04:00:00 14,8 13,8 21 11 SSE 1020,3 10
13.12.2017 03:00:00 14,0 13,0 21 11 SSE - 10
13.12.2017 02:00:00 15,0 14,0 18 10 S - 10
13.12.2017 01:00:00 14,8 13,8 18 10 S 1020,4 10
13.12.2017 00:00:00 15,0 14,0 21 11 S - 10
12.12.2017 23:00:00 15,0 14,0 22 12 S - 10
12.12.2017 22:00:00 15,0 13,7 24 13 S 1020,4 10
12.12.2017 21:00:00 15,0 14,0 24 13 S - 10
12.12.2017 20:00:00 15,0 14,0 22 12 S - 10
12.12.2017 19:00:00 14,8 13,5 28 15 S 1019,4 10
12.12.2017 18:00:00 15,0 14,0 26 14 S - 10
12.12.2017 17:00:00 16,0 14,0 26 14 S - 10
12.12.2017 16:00:00 16,4 14,4 31 17 S 1018,5 10
12.12.2017 15:00:00 17,0 14,0 31 17 S - 10
12.12.2017 14:00:00 18,0 13,0 34 18 S - 10
12.12.2017 13:00:00 18,2 13,9 34 18 S 1018,5 10

tt = Température de l'air
td = dewpoint
ff = Vitesse du vent
dd = Direction du vent
ppp = reduced air pressure
vv = visibility

stations d'obs. à proximité